FENGYUN 1C DEB, 33701

Orbit data source: Space-Track

FENGYUN 1C DEB, 33701 is space debris in SSO originally from a launch on Mon, 10 May 1999 UTC launched from the Taiyaun Space Center, China (TSC). Fengyun 1C debris stems from the Chinese weather satellite Fengyun-1C, which was intentionally destroyed by a Chinese anti-satellite missile in 2007. This event dramatically increased the amount of space debris, with thousands of trackable fragments posing hazards to satellites and human spaceflight. The Fengyun 1C debris cloud has become a focal point in discussions about space sustainability and the need for international regulations to prevent the creation of new debris.

Loading next visibility...
Identifier
33701, 1999-025DGN
Orbit
SSO
Country
Flag of CNCN / PRC
Related business
Manufacturer
Unknown
Mission
Spacecraft
Bus & Motor
Unknown
Mass
Unknown
Launch date (UTC)
1999-05-10 (27 years ago)
Launch vehicle
Unknown
Launch site
Taiyaun Space Center, China (TSC)
Object type
Payload
Rocket body
Debris
Shape & HBR
Unknown shape, 0.1 m
Radar Cross Section
Small (<0.1 m²)

Expand to show TLE details & history
Last TLE update: 1 day ago

TLE from 1 day ago
0 FENGYUN 1C DEB
1 33701U 99025DGN 26207.30355729  .00001554  00000-0  94773-3 0  9998
2 33701  98.6722 156.0592 0130319 276.6579  81.9771 14.03356265936687
Epoch: 2026-07-26T07:17Z
TLE epoch observation values (Epoch: 2026-07-26T07:17:07.349Z)
Latitude
0.00001°
Longitude
102.77516°
Altitude
873.094 km
Speed
7.422 km/s
True Right ascension
10h 24m 14s
True Declination
0° 00' 00"
Sunlit
Object was in daylight at epoch
Visualization orbit readout
Latitude
Unknown
Longitude
Unknown
Altitude
Unknown
Speed
Unknown
Apparent Right ascension
Unknown
Apparent Declination
Unknown
Sunlit
N/A
Visualization observer readout
Local Sidereal Time
22:25:41
Azimuth
Unknown
Elevation
Unknown
Doppler factor
Unknown
Orbital elements
Apogee altitude
973.954 km
Perigee altitude
784.795 km
Semi-major axis
7,257.512 km
Eccentricity
0.01303
Inclination
98.6722°
RAAN
156.0592°
Arg. of periapsis
276.6579°
True anomaly
83.45903°
Mean anomaly
81.9771°
Eccentric anomaly
82.71775°
Mean motion
3.51044 °/min
Orbital period
102.55 mins
BSTAR
0.00094773
Loading maneuver chart data...
Computing Atmospheric mass density...

Documentation

Showing up to 5 results
|